Theta_e
313 315 317 319 321 323 323 321 320 321 321 321 322 324 325 324 322 322 323 323 323 323 321 320 318 317 318 318 318 317 316 314 311 306 302 302 302 301 300 301 302 302
313 314 316 317 319 320 320 320 319 319 319 319 320 324 326 325 324 324 324 324 324 323 322 320 319 320 320 319 318 317 315 311 307 303 302 302 301 300 301 302 302 301
312 313 314 315 316 317 316 317 318 318 319 319 320 323 326 326 327 326 326 325 324 323 322 321 320 320 319 318 317 316 313 308 303 301 301 301 300 300 302 303 301 300
312 313 313 314 315 315 315 316 317 317 319 319 320 324 326 327 327 327 327 326 324 324 323 320 319 318 317 316 315 314 309 304 301 300 301 301 300 301 303 302 300 299
312 313 313 314 315 315 315 316 316 317 318 318 321 325 326 327 327 327 327 327 325 324 323 320 318 317 318 315 313 311 306 301 300 300 301 300 300 303 303 301 300 299
313 313 313 314 315 315 316 316 316 317 317 319 322 325 326 326 326 327 328 328 326 324 323 321 318 318 319 316 311 308 304 300 300 300 299 300 301 303 301 300 299 298
313 313 313 313 314 315 316 317 317 318 319 321 324 325 326 326 326 326 327 328 327 325 324 321 319 320 321 317 310 306 301 299 300 300 299 300 302 301 300 299 299 298
313 313 313 313 314 315 317 318 320 321 322 323 325 326 326 326 326 326 327 328 327 326 324 321 319 320 321 316 310 304 300 299 299 299 299 301 302 301 299 298 298 297
312 312 313 313 314 316 318 320 321 323 324 325 326 327 327 327 327 326 327 328 327 325 324 321 319 319 318 314 308 302 299 299 299 298 299 301 301 300 298 297 297 297
312 312 312 313 314 316 319 322 323 324 324 326 327 327 328 327 326 326 328 328 326 325 323 320 319 319 316 311 306 301 299 299 298 297 299 300 299 298 297 296 296 297
312 313 313 313 314 316 319 322 324 324 324 326 328 328 328 327 325 326 328 327 325 324 323 320 320 318 314 308 303 299 298 298 297 297 298 298 298 297 296 296 296 296
313 313 314 315 316 318 321 323 324 325 325 326 327 328 328 328 326 324 324 325 325 323 322 320 319 317 312 306 301 298 298 297 296 297 298 298 297 296 295 295 296 296
312 313 313 314 316 319 322 323 324 325 325 325 326 328 328 328 327 323 321 323 324 322 321 321 319 315 310 304 299 297 297 297 296 297 297 297 296 295 295 295 295 295
312 312 312 312 314 316 318 321 323 324 325 325 326 327 326 327 327 323 322 324 324 322 321 320 319 315 308 302 298 297 297 296 296 297 297 296 295 295 295 295 295 295
311 311 312 312 312 313 314 316 318 320 322 323 324 325 325 326 326 323 322 323 323 321 321 321 319 315 307 300 298 297 296 296 296 297 297 296 295 295 294 294 294 294
311 311 311 311 311 312 312 313 313 315 316 317 320 322 322 324 326 324 323 323 321 320 321 320 319 314 305 299 298 297 296 296 297 297 296 295 295 294 294 294 294 294
311 311 310 310 310 310 311 311 311 312 312 313 317 320 321 323 324 325 324 323 321 320 320 320 318 312 303 298 297 296 296 296 296 297 295 294 294 294 294 294 294 294
310 309 309 309 309 310 310 309 310 312 313 315 318 320 321 323 323 323 323 322 320 320 319 318 316 309 301 297 297 296 295 295 295 296 295 294 294 294 294 294 294 294
310 309 309 308 309 313 315 313 312 315 317 318 319 320 321 321 322 322 322 321 320 320 318 316 312 305 299 297 296 295 295 295 294 294 294 294 294 294 294 294 294 294
310 309 309 308 309 314 318 317 317 319 320 319 320 320 320 320 320 321 320 320 319 319 318 316 310 303 298 297 296 295 295 294 294 294 293 293 293 294 294 294 294 294
311 310 309 309 311 314 316 319 319 319 318 317 318 319 320 319 319 320 319 319 319 318 318 316 310 302 298 296 295 295 294 294 294 293 293 293 293 293 293 293 293 294
312 311 309 309 312 314 316 317 317 317 317 318 318 319 320 319 319 319 319 318 318 317 317 315 309 301 297 296 295 295 294 294 293 293 293 293 293 293 293 293 293 294
312 312 311 309 311 314 317 316 316 315 316 317 318 319 319 318 318 317 317 317 317 317 317 314 307 300 297 296 295 294 294 294 293 293 293 293 292 293 293 293 293 295
311 311 312 310 310 312 314 315 315 315 316 316 317 317 317 317 316 316 316 316 315 316 315 312 305 299 296 295 295 294 294 293 293 293 293 292 292 292 293 293 293 295
311 311 311 311 311 311 312 312 312 314 315 316 316 316 316 316 315 315 315 315 315 314 312 308 303 298 296 295 294 294 294 293 293 292 292 292 292 292 292 292 293 296
311 311 310 311 311 311 311 312 312 312 313 313 313 314 314 314 314 313 313 314 314 312 309 305 301 297 295 295 294 294 293 293 292 292 292 292 292 292 292 292 294 296
Wind_Speed
43 42 40 38 37 35 36 38 39 39 40 40 37 34 32 32 29 26 26 25 23 24 25 25 25 24 24 23 22 24 25 23 21 21 20 18 17 15 14 12 10 8
43 42 40 39 39 38 38 38 38 39 40 40 37 34 33 31 28 26 27 27 26 25 26 26 26 25 26 25 23 24 25 24 23 22 20 19 18 16 15 13 10 8
44 43 43 41 40 40 39 38 38 39 39 39 36 34 32 30 28 28 28 27 27 27 27 27 28 28 28 26 23 24 25 24 23 23 21 20 18 17 15 13 10 9
44 44 43 42 41 41 39 38 39 39 39 39 36 33 32 30 29 30 30 29 28 28 28 27 28 27 25 23 23 26 26 25 25 23 22 20 19 17 15 13 11 9
42 42 42 42 41 41 40 38 39 39 38 37 34 33 33 32 31 31 32 31 29 28 27 26 26 25 22 22 25 28 28 27 26 24 22 21 19 17 15 13 12 10
40 39 40 41 41 41 40 39 39 39 37 35 34 34 35 34 32 31 33 34 31 29 27 25 25 25 23 23 27 29 29 28 26 24 23 21 19 17 15 14 12 10
37 37 37 38 39 40 40 40 39 38 36 34 34 35 34 33 33 31 32 35 32 28 26 24 26 28 26 26 29 32 30 28 27 25 24 22 20 18 16 14 12 10
36 36 36 36 38 39 39 39 39 37 36 34 34 34 33 33 33 31 32 35 32 28 26 24 26 30 29 28 32 33 31 29 27 26 24 22 20 18 16 14 12 11
38 37 36 36 37 37 38 38 38 38 36 35 34 33 32 32 31 30 34 36 32 29 26 23 26 29 29 30 35 34 32 30 27 26 24 22 20 18 16 14 13 11
37 36 36 37 37 37 37 37 38 38 36 35 34 32 31 31 30 31 35 35 32 31 28 25 27 29 29 32 36 34 31 29 27 26 24 22 20 18 16 15 13 11
32 33 34 35 35 36 36 36 37 36 35 35 33 32 31 30 29 31 34 35 34 33 29 27 28 29 29 34 36 33 31 29 27 26 24 22 21 18 16 15 13 11
30 31 32 32 32 33 33 34 35 34 34 33 32 31 31 31 31 30 31 35 35 30 26 25 26 26 30 35 35 33 31 29 28 27 25 23 21 19 17 15 13 12
29 30 31 31 31 31 31 32 32 32 32 30 30 29 29 32 34 29 28 34 33 27 25 25 24 26 31 35 34 33 31 30 29 27 25 23 21 19 18 16 14 12
28 29 30 31 31 31 31 31 31 31 30 29 28 28 28 31 32 25 24 32 33 29 29 27 24 27 32 35 35 33 32 31 30 28 25 23 21 20 18 16 14 13
26 27 29 30 31 31 31 31 31 30 29 28 28 28 27 31 32 27 27 31 31 30 30 25 23 27 34 36 36 33 32 32 30 28 26 23 22 20 18 17 15 14
23 25 26 27 28 29 29 30 30 29 29 28 28 29 29 33 36 34 32 32 30 30 29 23 22 29 35 36 35 33 32 32 30 28 26 24 22 21 19 18 16 15
21 22 23 24 24 25 25 26 26 26 27 27 28 29 31 33 35 33 33 33 31 31 30 27 25 31 36 35 34 32 32 31 30 28 26 24 23 21 20 19 17 15
18 19 20 20 20 20 18 19 21 22 23 24 26 28 28 30 32 34 34 33 30 27 27 26 28 34 37 35 34 33 32 30 29 28 26 25 24 22 21 19 18 16
17 18 17 16 17 18 17 16 18 21 23 24 26 26 25 26 30 34 35 31 27 24 23 24 30 36 37 35 34 33 32 31 29 27 26 25 24 23 22 20 18 16
16 16 16 15 16 19 20 19 20 21 22 24 24 25 24 23 25 31 34 29 25 22 22 25 31 36 37 36 35 34 33 32 30 28 27 26 25 24 23 21 18 17
15 16 16 16 16 18 20 21 22 23 22 22 23 24 25 24 25 29 31 28 25 23 23 26 32 37 37 36 36 35 34 33 31 30 28 27 26 25 23 21 19 17
15 16 17 17 18 20 21 22 23 24 24 24 24 24 26 27 27 29 29 28 26 25 26 29 34 38 38 37 36 36 35 34 32 31 30 29 28 26 23 21 20 19
16 17 17 18 19 21 22 23 22 23 24 24 24 25 26 28 28 28 28 28 27 27 29 32 36 39 38 37 37 37 36 35 33 33 31 30 28 26 24 22 21 21
16 16 17 19 19 20 23 24 24 24 24 24 25 26 27 28 29 29 30 29 29 29 31 34 37 38 38 38 37 37 36 35 34 33 32 30 28 27 25 24 23 22
16 16 17 18 19 20 22 23 23 24 25 26 27 28 29 31 32 33 33 32 31 30 32 35 37 38 38 38 37 37 37 36 35 33 32 31 29 28 27 26 25 23
16 16 16 16 17 19 22 24 25 25 26 28 30 31 33 34 34 34 33 31 30 31 34 36 38 38 38 38 38 38 37 36 34 33 32 32 31 30 29 28 26 24
Wind_Direction
243 242 240 238 239 238 240 243 244 244 245 246 247 245 242 244 245 244 246 247 249 252 250 247 246 245 245 247 247 242 232 219 209 203 200 198 197 197 196 195 196 197
242 242 240 239 239 240 241 244 245 245 246 248 247 242 241 244 245 245 245 246 248 251 251 247 245 244 246 250 248 236 221 208 201 200 199 198 198 198 196 196 196 198
242 242 241 241 241 242 244 244 245 247 247 247 246 241 240 242 243 245 246 247 247 249 249 244 241 243 246 248 241 223 210 201 199 199 198 198 198 198 197 197 198 199
241 242 243 243 242 244 245 244 245 246 245 247 245 240 239 238 237 240 244 246 247 247 247 243 239 242 244 241 227 211 202 197 198 199 199 199 199 199 198 197 199 202
242 242 243 243 243 244 245 244 245 245 245 247 245 239 236 234 233 235 238 241 245 245 246 245 240 239 239 233 220 206 198 196 198 199 199 200 200 199 199 199 202 205
242 243 243 243 244 245 245 245 245 246 247 246 242 238 236 234 233 232 234 240 244 245 246 247 241 237 239 234 217 204 198 197 198 199 199 200 201 200 199 201 204 206
242 243 244 244 245 245 245 247 246 246 246 244 240 237 235 235 233 231 234 237 239 242 246 246 239 235 240 236 216 203 199 198 199 200 200 200 201 201 201 203 206 207
241 242 243 244 244 244 245 245 245 246 244 241 239 236 234 235 232 232 234 232 234 240 243 242 238 235 239 231 214 204 199 198 199 200 200 201 201 202 203 204 206 208
242 243 243 243 244 244 244 243 244 244 241 239 238 235 234 233 230 234 232 228 234 239 237 239 240 237 236 224 210 204 200 198 200 200 201 203 203 203 203 204 208 211
244 245 246 245 245 244 242 241 242 241 240 239 236 234 233 230 231 236 230 226 234 236 233 239 241 238 232 216 206 204 201 199 201 200 201 204 204 204 205 206 209 213
248 249 249 249 248 246 243 241 241 241 240 238 234 233 232 230 232 233 228 230 237 234 229 235 239 237 226 211 204 202 200 200 202 201 202 204 205 204 205 207 211 214
251 252 251 250 249 247 244 242 241 241 240 238 236 233 230 230 230 230 232 237 234 227 227 233 237 234 220 208 204 202 200 201 202 203 204 205 206 206 205 208 211 214
251 251 251 250 249 247 245 242 241 240 239 238 236 232 230 231 227 226 236 235 225 222 230 236 238 231 216 207 205 203 201 201 202 204 206 206 207 206 205 208 211 214
251 251 250 249 248 246 245 242 240 238 238 238 236 233 234 234 228 230 240 230 222 225 230 235 240 228 213 206 205 204 203 203 203 205 206 207 208 207 206 209 211 214
250 250 249 248 246 244 243 242 239 237 235 234 235 234 234 233 231 236 238 229 228 228 224 230 238 224 211 208 206 205 204 205 206 207 207 208 209 207 207 209 212 216
252 251 249 248 246 243 242 242 240 238 235 232 230 228 231 233 230 229 229 228 231 230 226 236 239 220 211 210 208 207 207 207 208 208 207 209 209 208 209 210 213 216
254 252 249 247 244 241 239 239 238 236 233 230 226 225 232 236 229 225 227 225 223 226 232 242 238 217 209 209 208 208 209 210 211 209 208 208 208 209 211 213 214 216
252 249 246 244 240 234 233 233 230 226 223 224 225 228 235 237 229 227 228 222 217 226 237 239 228 213 208 208 209 209 209 211 212 212 210 209 209 210 212 214 215 215
249 247 243 238 231 225 224 222 219 218 220 222 225 229 233 234 230 226 222 218 222 234 240 233 220 211 208 209 209 209 210 211 212 213 212 211 211 213 214 215 215 214
249 246 241 233 226 223 223 221 219 221 224 224 225 226 226 226 228 222 216 219 229 236 239 232 218 211 209 210 210 210 211 211 211 212 212 212 213 214 215 215 214 213
252 248 242 232 225 223 225 225 223 223 225 224 224 226 226 224 224 221 221 229 238 239 241 233 219 212 212 211 211 211 212 212 211 211 212 212 213 214 215 214 213 213
255 251 245 235 227 224 227 230 227 225 225 225 225 225 223 220 220 223 230 239 243 243 240 230 218 213 213 213 213 213 213 213 213 213 213 213 213 214 214 213 214 216
253 251 247 239 231 226 227 231 231 229 229 229 228 225 223 223 227 235 241 245 246 244 239 228 217 214 214 215 215 216 215 215 215 215 215 214 214 214 214 215 217 218
250 251 249 245 239 232 231 233 233 232 232 232 231 230 231 235 240 244 246 248 248 244 236 226 217 215 216 217 217 218 218 218 218 217 216 215 215 215 216 217 218 220
251 252 252 249 245 240 238 239 238 236 234 234 234 235 237 240 243 245 248 249 247 239 230 223 218 217 219 219 220 220 220 219 219 219 218 218 217 218 218 218 219 222
251 252 253 252 248 243 240 239 239 238 238 238 239 241 243 245 247 248 248 245 238 230 224 221 219 218 220 221 222 222 221 221 221 221 222 222 221 220 220 221 222 224